Location: Gwatt
(46.7204°N, 7.6223°E)
Time: 07:39:27
(UTC+00:00)

Vanguard 3 - Pass Details

Date: 30 January 2021
Orbit: 508 x 3261 km, 33.3° (Epoch: 24 February)

Event Time Altitude Azimuth Distance (km) Brightness Sun altitude
Exits shadow 05:34:06 10° 244° (WSW) 3,131 9.7 -14.2°
Maximum altitude 05:40:30 26° 192° (SSW) 2,811 9.9 -13.1°
Drops below altitude 10° 05:50:15 10° 143° (SE) 4,887 11.9 -11.5°
Sets 05:55:53 0° 133° (SE) 6,367 12.9 -10.5°
